Time,TemperatureF,DewpointF,PressureIn,WindDirection,WindDirectionDegrees,WindSpeedMPH,WindSpeedGustMPH,Humidity,HourlyPrecipIn,Conditions,Clouds,dailyrainin,SolarRadiationWatts/m^2,SoftwareType,DateUTC
2013-07-26 00:04:00,63.9,56.9,30.04,West,269,0.0,0.0,78,0.00,,,0.00,0,Wunderground v.1.15,2013-07-26 07:04:00,
2013-07-26 00:09:00,63.7,56.7,30.04,SW,234,0.0,0.0,78,0.00,,,0.00,0,Wunderground v.1.15,2013-07-26 07:09:00,
2013-07-26 00:15:00,63.6,56.6,30.04,SW,234,0.0,0.0,78,0.00,,,0.00,0,Wunderground v.1.15,2013-07-26 07:15:00,
2013-07-26 00:20:00,63.4,54.6,30.04,SW,234,0.0,0.0,73,0.00,,,0.00,0,Wunderground v.1.15,2013-07-26 07:20:00,
2013-07-26 00:29:00,63.3,54.9,30.04,SW,232,1.0,1.0,74,0.00,,,0.00,0,Wunderground v.1.15,2013-07-26 07:29:00,
2013-07-26 00:39:00,63.0,55.3,30.04,SSW,212,2.0,2.0,76,0.00,,,0.00,0,Wunderground v.1.15,2013-07-26 07:39:00,
2013-07-26 00:45:00,62.9,55.6,30.04,SSW,192,1.0,2.0,77,0.00,,,0.00,0,Wunderground v.1.15,2013-07-26 07:45:00,
2013-07-26 00:54:00,62.5,55.9,30.03,SSW,196,0.0,1.0,79,0.00,,,0.00,0,Wunderground v.1.15,2013-07-26 07:54:00,
2013-07-26 00:59:00,62.2,54.2,30.03,SSW,196,0.0,0.0,75,0.00,,,0.00,0,Wunderground v.1.15,2013-07-26 07:59:00,
2013-07-26 01:05:00,62.0,55.1,30.03,SSW,196,0.0,0.0,78,0.00,,,0.00,0,Wunderground v.1.15,2013-07-26 08:05:00,
2013-07-26 01:10:00,61.8,55.6,30.03,SSW,196,0.0,0.0,80,0.00,,,0.00,0,Wunderground v.1.15,2013-07-26 08:10:00,
2013-07-26 01:19:00,61.5,54.2,30.03,SSW,196,0.0,0.0,77,0.00,,,0.00,0,Wunderground v.1.15,2013-07-26 08:19:00,
2013-07-26 01:29:00,61.3,55.8,30.03,SSW,196,0.0,0.0,82,0.00,,,0.00,0,Wunderground v.1.15,2013-07-26 08:29:00,
2013-07-26 01:39:00,61.1,54.9,30.03,SSW,196,0.0,0.0,80,0.00,,,0.00,0,Wunderground v.1.15,2013-07-26 08:39:00,
2013-07-26 01:44:00,61.0,52.3,30.03,SSW,196,0.0,0.0,73,0.00,,,0.00,0,Wunderground v.1.15,2013-07-26 08:44:00,
2013-07-26 01:49:00,61.0,52.3,30.04,SSW,196,1.0,1.0,73,0.00,,,0.00,0,Wunderground v.1.15,2013-07-26 08:49:00,
2013-07-26 01:59:00,60.8,53.9,30.04,SSW,196,0.0,0.0,78,0.00,,,0.00,0,Wunderground v.1.15,2013-07-26 08:59:00,
2013-07-26 02:05:00,60.6,54.4,30.04,SSW,196,0.0,0.0,80,0.00,,,0.00,0,Wunderground v.1.15,2013-07-26 09:05:00,
2013-07-26 02:10:00,60.5,54.0,30.03,SSW,196,1.0,1.0,79,0.00,,,0.00,0,Wunderground v.1.15,2013-07-26 09:10:00,
2013-07-26 02:19:00,60.4,55.2,30.03,SSW,196,0.0,0.0,83,0.00,,,0.00,0,Wunderground v.1.15,2013-07-26 09:19:00,
2013-07-26 02:29:00,60.2,54.3,30.03,SSW,196,0.0,0.0,81,0.00,,,0.00,0,Wunderground v.1.15,2013-07-26 09:29:00,
2013-07-26 02:35:00,60.1,54.2,30.03,SSW,196,0.0,0.0,81,0.00,,,0.00,0,Wunderground v.1.15,2013-07-26 09:35:00,
2013-07-26 02:44:00,59.8,51.1,30.03,SSW,196,0.0,0.0,73,0.00,,,0.00,0,Wunderground v.1.15,2013-07-26 09:44:00,
2013-07-26 02:49:00,59.6,50.6,30.03,SSW,196,0.0,0.0,72,0.00,,,0.00,0,Wunderground v.1.15,2013-07-26 09:49:00,
2013-07-26 02:55:00,59.5,49.7,30.03,SSW,196,3.0,3.0,70,0.00,,,0.00,0,Wunderground v.1.15,2013-07-26 09:55:00,
2013-07-26 03:00:00,59.4,49.6,30.03,SSW,196,1.0,1.0,70,0.00,,,0.00,0,Wunderground v.1.15,2013-07-26 10:00:00,
2013-07-26 03:09:00,59.3,52.4,30.03,SSW,196,1.0,1.0,78,0.00,,,0.00,0,Wunderground v.1.15,2013-07-26 10:09:00,
2013-07-26 03:19:00,59.1,52.2,30.03,SSW,196,1.0,1.0,78,0.00,,,0.00,0,Wunderground v.1.15,2013-07-26 10:19:00,
2013-07-26 03:25:00,59.0,51.8,30.03,SSW,196,0.0,1.0,77,0.00,,,0.00,0,Wunderground v.1.15,2013-07-26 10:25:00,
2013-07-26 03:34:00,59.0,52.1,30.03,SSW,196,0.0,2.0,78,0.00,,,0.00,0,Wunderground v.1.15,2013-07-26 10:34:00,
2013-07-26 03:39:00,58.9,52.1,30.03,SSW,196,2.0,2.0,78,0.00,,,0.00,0,Wunderground v.1.15,2013-07-26 10:39:00,
2013-07-26 03:45:00,58.8,52.0,30.03,SSW,196,0.0,2.0,78,0.00,,,0.00,0,Wunderground v.1.15,2013-07-26 10:45:00,
2013-07-26 03:50:00,58.8,52.0,30.03,SSW,196,0.0,0.0,78,0.00,,,0.00,0,Wunderground v.1.15,2013-07-26 10:50:00,
2013-07-26 04:00:00,58.7,51.9,30.03,SSW,195,0.0,0.0,78,0.00,,,0.00,0,Wunderground v.1.15,2013-07-26 11:00:00,
2013-07-26 04:09:00,58.4,51.6,30.03,SSW,195,1.0,1.0,78,0.00,,,0.00,0,Wunderground v.1.15,2013-07-26 11:09:00,
2013-07-26 04:19:00,58.2,51.4,30.03,SSW,195,0.0,0.0,78,0.00,,,0.00,0,Wunderground v.1.15,2013-07-26 11:19:00,
2013-07-26 04:25:00,58.1,51.6,30.04,SSW,195,2.0,2.0,79,0.00,,,0.00,0,Wunderground v.1.15,2013-07-26 11:25:00,
2013-07-26 04:34:00,58.0,51.5,30.04,SSW,195,0.0,1.0,79,0.00,,,0.00,0,Wunderground v.1.15,2013-07-26 11:34:00,
2013-07-26 04:39:00,57.9,51.4,30.03,SSW,194,0.0,0.0,79,0.00,,,0.00,0,Wunderground v.1.15,2013-07-26 11:39:00,
2013-07-26 04:45:00,57.9,51.8,30.04,South,185,2.0,2.0,80,0.00,,,0.00,0,Wunderground v.1.15,2013-07-26 11:45:00,
2013-07-26 04:54:00,57.7,46.8,30.04,SSW,193,1.0,1.0,67,0.00,,,0.00,0,Wunderground v.1.15,2013-07-26 11:54:00,
2013-07-26 04:59:00,57.6,46.7,30.04,SSW,194,1.0,1.0,67,0.00,,,0.00,0,Wunderground v.1.15,2013-07-26 11:59:00,
2013-07-26 05:09:00,57.5,48.2,30.04,SSW,193,2.0,2.0,71,0.00,,,0.00,0,Wunderground v.1.15,2013-07-26 12:09:00,
2013-07-26 05:15:00,57.4,47.3,30.04,South,190,0.0,2.0,69,0.00,,,0.00,0,Wunderground v.1.15,2013-07-26 12:15:00,
2013-07-26 05:20:00,57.3,46.8,30.04,South,190,1.0,1.0,68,0.00,,,0.00,0,Wunderground v.1.15,2013-07-26 12:20:00,
2013-07-26 05:29:00,57.2,46.3,30.04,SSW,201,1.0,1.0,67,0.00,,,0.00,0,Wunderground v.1.15,2013-07-26 12:29:00,
2013-07-26 05:39:00,57.0,46.1,30.05,SSW,199,1.0,1.0,67,0.00,,,0.00,0,Wunderground v.1.15,2013-07-26 12:39:00,
2013-07-26 05:45:00,56.9,46.1,30.05,SSW,199,0.0,1.0,67,0.00,,,0.00,0,Wunderground v.1.15,2013-07-26 12:45:00,
2013-07-26 05:50:00,56.8,46.0,30.05,SSW,213,1.0,1.0,67,0.00,,,0.00,0,Wunderground v.1.15,2013-07-26 12:50:00,
2013-07-26 05:59:00,56.7,45.5,30.05,SW,216,1.0,1.0,66,0.00,,,0.00,0,Wunderground v.1.15,2013-07-26 12:59:00,
2013-07-26 06:09:00,56.6,45.0,30.06,SW,216,0.0,0.0,65,0.00,,,0.00,0,Wunderground v.1.15,2013-07-26 13:09:00,
2013-07-26 06:15:00,56.5,44.9,30.06,SW,216,0.0,0.0,65,0.00,,,0.00,0,Wunderground v.1.15,2013-07-26 13:15:00,
2013-07-26 06:24:00,56.4,45.6,30.06,SW,216,0.0,0.0,67,0.00,,,0.00,0,Wunderground v.1.15,2013-07-26 13:24:00,
2013-07-26 06:29:00,56.5,45.7,30.07,SW,216,0.0,0.0,67,0.00,,,0.00,0,Wunderground v.1.15,2013-07-26 13:29:00,
2013-07-26 06:39:00,56.8,46.3,30.07,SW,216,0.0,0.0,68,0.00,,,0.00,0,Wunderground v.1.15,2013-07-26 13:39:00,
2013-07-26 06:44:00,56.8,46.0,30.08,SW,216,0.0,0.0,67,0.00,,,0.00,0,Wunderground v.1.15,2013-07-26 13:44:00,
2013-07-26 06:50:00,57.0,46.1,30.07,SW,216,0.0,0.0,67,0.00,,,0.00,0,Wunderground v.1.15,2013-07-26 13:50:00,
2013-07-26 06:59:00,57.3,46.8,30.07,SW,216,0.0,0.0,68,0.00,,,0.00,0,Wunderground v.1.15,2013-07-26 13:59:00,
2013-07-26 07:05:00,57.4,46.9,30.08,SW,214,0.0,0.0,68,0.00,,,0.00,0,Wunderground v.1.15,2013-07-26 14:05:00,
2013-07-26 07:14:00,57.7,47.2,30.08,SSW,195,7.0,7.0,68,0.00,,,0.00,0,Wunderground v.1.15,2013-07-26 14:14:00,
2013-07-26 07:24:00,57.6,47.1,30.08,South,185,2.0,2.0,68,0.00,,,0.00,0,Wunderground v.1.15,2013-07-26 14:24:00,
2013-07-26 07:29:00,57.7,47.2,30.08,SSW,207,0.0,0.0,68,0.00,,,0.00,0,Wunderground v.1.15,2013-07-26 14:29:00,
2013-07-26 07:35:00,57.8,47.3,30.08,SSW,193,7.0,7.0,68,0.00,,,0.00,0,Wunderground v.1.15,2013-07-26 14:35:00,
2013-07-26 07:40:00,58.0,47.5,30.08,South,191,4.0,4.0,68,0.00,,,0.00,0,Wunderground v.1.15,2013-07-26 14:40:00,
2013-07-26 07:49:00,58.1,47.6,30.09,SSW,201,4.0,4.0,68,0.00,,,0.00,0,Wunderground v.1.15,2013-07-26 14:49:00,
2013-07-26 07:54:00,58.2,47.7,30.08,SSW,205,2.0,4.0,68,0.00,,,0.00,0,Wunderground v.1.15,2013-07-26 14:54:00,
2013-07-26 07:59:00,58.2,47.7,30.09,SSW,197,3.0,3.0,68,0.00,,,0.00,0,Wunderground v.1.15,2013-07-26 14:59:00,
2013-07-26 08:09:00,58.6,48.1,30.08,SSW,204,2.0,2.0,68,0.00,,,0.00,0,Wunderground v.1.15,2013-07-26 15:09:00,
2013-07-26 08:20:00,59.2,48.2,30.09,SSW,200,3.0,3.0,67,0.00,,,0.00,0,Wunderground v.1.15,2013-07-26 15:20:00,
2013-07-26 08:29:00,59.9,48.9,30.09,SSW,200,1.0,1.0,67,0.00,,,0.00,0,Wunderground v.1.15,2013-07-26 15:29:00,
2013-07-26 08:39:00,60.8,49.0,30.09,South,185,2.0,2.0,65,0.00,,,0.00,0,Wunderground v.1.15,2013-07-26 15:39:00,
2013-07-26 08:45:00,61.3,49.4,30.09,SSW,197,1.0,2.0,65,0.00,,,0.00,0,Wunderground v.1.15,2013-07-26 15:45:00,
2013-07-26 08:50:00,61.7,49.4,30.09,SSW,211,2.0,2.0,64,0.00,,,0.00,0,Wunderground v.1.15,2013-07-26 15:50:00,
2013-07-26 08:59:00,62.7,50.3,30.09,South,188,5.0,5.0,64,0.00,,,0.00,0,Wunderground v.1.15,2013-07-26 15:59:00,
2013-07-26 09:09:00,63.3,50.1,30.09,SSW,197,6.0,6.0,62,0.00,,,0.00,0,Wunderground v.1.15,2013-07-26 16:09:00,
2013-07-26 09:14:00,63.4,50.1,30.09,SSW,213,2.0,6.0,62,0.00,,,0.00,0,Wunderground v.1.15,2013-07-26 16:14:00,
2013-07-26 09:20:00,63.7,50.4,30.09,SSW,195,0.0,0.0,62,0.00,,,0.00,0,Wunderground v.1.15,2013-07-26 16:20:00,
2013-07-26 09:29:00,64.3,50.6,30.09,SW,222,1.0,1.0,61,0.00,,,0.00,0,Wunderground v.1.15,2013-07-26 16:29:00,
2013-07-26 09:39:00,65.6,51.3,30.09,SSW,205,5.0,5.0,60,0.00,,,0.00,0,Wunderground v.1.15,2013-07-26 16:39:00,
2013-07-26 09:44:00,65.5,51.2,30.09,South,190,3.0,5.0,60,0.00,,,0.00,0,Wunderground v.1.15,2013-07-26 16:44:00,
2013-07-26 09:50:00,65.8,51.5,30.09,SSW,192,0.0,0.0,60,0.00,,,0.00,0,Wunderground v.1.15,2013-07-26 16:50:00,
2013-07-26 09:59:00,66.9,51.6,30.09,SSW,198,2.0,2.0,58,0.00,,,0.00,0,Wunderground v.1.15,2013-07-26 16:59:00,
2013-07-26 10:05:00,67.2,52.4,30.09,SSW,206,0.0,2.0,59,0.00,,,0.00,0,Wunderground v.1.15,2013-07-26 17:05:00,
2013-07-26 10:10:00,67.8,52.9,30.09,SSW,195,6.0,6.0,59,0.00,,,0.00,0,Wunderground v.1.15,2013-07-26 17:10:00,
2013-07-26 10:19:00,68.8,53.4,30.09,SW,215,1.0,1.0,58,0.00,,,0.00,0,Wunderground v.1.15,2013-07-26 17:19:00,
2013-07-26 10:29:00,69.9,62.0,30.09,South,187,0.0,0.0,76,0.00,,,0.00,0,Wunderground v.1.15,2013-07-26 17:29:00,
2013-07-26 10:35:00,70.8,63.6,30.09,WNW,283,0.0,0.0,78,0.00,,,0.00,0,Wunderground v.1.15,2013-07-26 17:35:00,
2013-07-26 10:40:00,71.9,64.3,30.09,South,182,0.0,0.0,77,0.00,,,0.00,0,Wunderground v.1.15,2013-07-26 17:40:00,
2013-07-26 10:49:00,72.9,64.5,30.09,South,178,2.0,2.0,75,0.00,,,0.00,0,Wunderground v.1.15,2013-07-26 17:49:00,
2013-07-26 11:00:00,74.3,65.1,30.08,South,188,2.0,2.0,73,0.00,,,0.00,0,Wunderground v.1.15,2013-07-26 18:00:00,
2013-07-26 11:09:00,75.5,65.8,30.08,SSW,208,1.0,1.0,72,0.00,,,0.00,0,Wunderground v.1.15,2013-07-26 18:09:00,
2013-07-26 11:19:00,77.0,64.8,30.09,West,281,1.0,1.0,66,0.00,,,0.00,0,Wunderground v.1.15,2013-07-26 18:19:00,
2013-07-26 11:25:00,77.6,59.1,30.08,NW,324,4.0,4.0,53,0.00,,,0.00,0,Wunderground v.1.15,2013-07-26 18:25:00,
2013-07-26 11:30:00,77.5,64.4,30.08,North,353,4.0,4.0,64,0.00,,,0.00,0,Wunderground v.1.15,2013-07-26 18:30:00,
2013-07-26 11:39:00,78.3,64.7,30.08,WNW,295,3.0,3.0,63,0.00,,,0.00,0,Wunderground v.1.15,2013-07-26 18:39:00,
2013-07-26 11:49:00,79.7,66.0,30.08,WNW,300,3.0,3.0,63,0.00,,,0.00,0,Wunderground v.1.15,2013-07-26 18:49:00,
2013-07-26 11:55:00,80.3,60.0,30.08,SSW,208,0.0,3.0,50,0.00,,,0.00,0,Wunderground v.1.15,2013-07-26 18:55:00,
2013-07-26 12:00:00,81.2,63.0,30.07,SW,217,1.0,1.0,54,0.00,,,0.00,0,Wunderground v.1.15,2013-07-26 19:00:00,
2013-07-26 12:09:00,82.3,63.5,30.07,WSW,243,1.0,1.0,53,0.00,,,0.00,0,Wunderground v.1.15,2013-07-26 19:09:00,
2013-07-26 12:19:00,83.5,65.6,30.07,WNW,292,3.0,3.0,55,0.00,,,0.00,0,Wunderground v.1.15,2013-07-26 19:19:00,
2013-07-26 12:29:00,83.3,66.0,30.07,South,191,5.0,5.0,56,0.00,,,0.00,0,Wunderground v.1.15,2013-07-26 19:29:00,
2013-07-26 12:35:00,83.8,65.9,30.06,WSW,253,1.0,5.0,55,0.00,,,0.00,0,Wunderground v.1.15,2013-07-26 19:35:00,
2013-07-26 12:40:00,84.0,65.6,30.06,SSW,193,2.0,2.0,54,0.00,,,0.00,0,Wunderground v.1.15,2013-07-26 19:40:00,
2013-07-26 12:49:00,84.3,64.8,30.05,SSW,207,4.0,4.0,52,0.00,,,0.00,0,Wunderground v.1.15,2013-07-26 19:49:00,
2013-07-26 12:55:00,84.3,64.8,30.05,South,188,3.0,4.0,52,0.00,,,0.00,0,Wunderground v.1.15,2013-07-26 19:55:00,
2013-07-26 13:00:00,84.2,65.8,30.05,SSW,202,8.0,8.0,54,0.00,,,0.00,0,Wunderground v.1.15,2013-07-26 20:00:00,
2013-07-26 13:10:00,83.6,65.2,30.05,West,266,0.0,0.0,54,0.00,,,0.00,0,Wunderground v.1.15,2013-07-26 20:10:00,
2013-07-26 13:19:00,85.0,67.0,30.05,NNW,332,3.0,3.0,55,0.00,,,0.00,0,Wunderground v.1.15,2013-07-26 20:19:00,
2013-07-26 13:29:00,85.5,67.0,30.05,SW,217,1.0,1.0,54,0.00,,,0.00,0,Wunderground v.1.15,2013-07-26 20:29:00,
2013-07-26 13:35:00,86.0,66.9,30.05,SSW,207,0.0,1.0,53,0.00,,,0.00,0,Wunderground v.1.15,2013-07-26 20:35:00,
2013-07-26 13:44:00,86.4,68.3,30.05,WNW,286,1.0,2.0,55,0.00,,,0.00,0,Wunderground v.1.15,2013-07-26 20:44:00,
2013-07-26 13:55:00,86.6,68.5,30.05,NW,305,4.0,7.0,55,0.00,,,0.00,0,Wunderground v.1.15,2013-07-26 20:55:00,
2013-07-26 14:00:00,86.5,67.9,30.05,South,176,2.0,2.0,54,0.00,,,0.00,0,Wunderground v.1.15,2013-07-26 21:00:00,
2013-07-26 14:09:00,86.6,68.0,30.05,South,172,1.0,1.0,54,0.00,,,0.00,0,Wunderground v.1.15,2013-07-26 21:09:00,
2013-07-26 14:19:00,86.7,68.6,30.04,SW,228,1.0,1.0,55,0.00,,,0.00,0,Wunderground v.1.15,2013-07-26 21:19:00,
2013-07-26 14:25:00,87.0,67.8,30.04,South,190,1.0,1.0,53,0.00,,,0.00,0,Wunderground v.1.15,2013-07-26 21:25:00,
2013-07-26 14:30:00,86.8,68.2,30.04,WSW,243,2.0,2.0,54,0.00,,,0.00,0,Wunderground v.1.15,2013-07-26 21:30:00,
2013-07-26 14:39:00,86.9,67.7,30.04,SW,214,3.0,3.0,53,0.00,,,0.00,0,Wunderground v.1.15,2013-07-26 21:39:00,
2013-07-26 14:45:00,87.5,68.8,30.04,SW,228,2.0,3.0,54,0.00,,,0.00,0,Wunderground v.1.15,2013-07-26 21:45:00,
2013-07-26 14:50:00,87.5,68.8,30.04,SSW,205,6.0,6.0,54,0.00,,,0.00,0,Wunderground v.1.15,2013-07-26 21:50:00,
2013-07-26 15:00:00,87.3,68.1,30.04,SSW,203,2.0,2.0,53,0.00,,,0.00,0,Wunderground v.1.15,2013-07-26 22:00:00,
2013-07-26 15:09:00,88.3,68.4,30.04,SSW,207,5.0,5.0,52,0.00,,,0.00,0,Wunderground v.1.15,2013-07-26 22:09:00,
2013-07-26 15:19:00,88.0,68.2,30.03,SSW,196,4.0,4.0,52,0.00,,,0.00,0,Wunderground v.1.15,2013-07-26 22:19:00,
2013-07-26 15:25:00,87.9,68.1,30.03,WSW,239,3.0,4.0,52,0.00,,,0.00,0,Wunderground v.1.15,2013-07-26 22:25:00,
2013-07-26 15:30:00,87.8,68.0,30.03,SSW,209,2.0,2.0,52,0.00,,,0.00,0,Wunderground v.1.15,2013-07-26 22:30:00,
2013-07-26 15:39:00,87.7,67.9,30.03,SW,217,1.0,1.0,52,0.00,,,0.00,0,Wunderground v.1.15,2013-07-26 22:39:00,
2013-07-26 15:45:00,87.4,68.2,30.03,SSW,210,2.0,2.0,53,0.00,,,0.00,0,Wunderground v.1.15,2013-07-26 22:45:00,
2013-07-26 15:50:00,87.0,67.8,30.02,SSW,205,2.0,2.0,53,0.00,,,0.00,0,Wunderground v.1.15,2013-07-26 22:50:00,
2013-07-26 15:59:00,87.1,67.9,30.03,SSW,210,2.0,2.0,53,0.00,,,0.00,0,Wunderground v.1.15,2013-07-26 22:59:00,
2013-07-26 16:09:00,87.4,66.5,30.02,SSW,209,5.0,5.0,50,0.00,,,0.00,0,Wunderground v.1.15,2013-07-26 23:09:00,
2013-07-26 16:15:00,87.1,67.3,30.02,SSW,194,4.0,5.0,52,0.00,,,0.00,0,Wunderground v.1.15,2013-07-26 23:15:00,
2013-07-26 16:20:00,87.0,66.7,30.02,SSW,205,4.0,4.0,51,0.00,,,0.00,0,Wunderground v.1.15,2013-07-26 23:20:00,
2013-07-26 16:29:00,87.2,66.3,30.02,SSW,206,3.0,3.0,50,0.00,,,0.00,0,Wunderground v.1.15,2013-07-26 23:29:00,
2013-07-26 16:35:00,87.9,66.9,30.02,SSW,206,3.0,3.0,50,0.00,,,0.00,0,Wunderground v.1.15,2013-07-26 23:35:00,
2013-07-26 16:40:00,87.6,66.7,30.02,SW,230,2.0,2.0,50,0.00,,,0.00,0,Wunderground v.1.15,2013-07-26 23:40:00,
2013-07-26 16:49:00,87.5,67.1,30.01,SSW,199,4.0,4.0,51,0.00,,,0.00,0,Wunderground v.1.15,2013-07-26 23:49:00,
2013-07-26 16:59:00,86.1,66.4,30.02,South,176,1.0,1.0,52,0.00,,,0.00,0,Wunderground v.1.15,2013-07-26 23:59:00,
2013-07-26 17:04:00,86.3,66.0,30.02,SW,220,2.0,2.0,51,0.00,,,0.00,0,Wunderground v.1.15,2013-07-27 00:04:00,
2013-07-26 17:09:00,85.9,65.7,30.02,SW,225,3.0,3.0,51,0.00,,,0.00,0,Wunderground v.1.15,2013-07-27 00:09:00,
2013-07-26 17:19:00,85.4,65.8,30.02,South,169,1.0,1.0,52,0.00,,,0.00,0,Wunderground v.1.15,2013-07-27 00:19:00,
2013-07-26 17:24:00,85.6,66.0,30.02,West,276,1.0,1.0,52,0.00,,,0.00,0,Wunderground v.1.15,2013-07-27 00:24:00,
2013-07-26 17:29:00,85.6,66.0,30.02,SW,226,1.0,1.0,52,0.00,,,0.00,0,Wunderground v.1.15,2013-07-27 00:29:00,
2013-07-26 17:39:00,84.9,64.8,30.02,South,190,3.0,3.0,51,0.00,,,0.00,0,Wunderground v.1.15,2013-07-27 00:39:00,
2013-07-26 17:45:00,84.4,64.3,30.01,SW,217,2.0,3.0,51,0.00,,,0.00,0,Wunderground v.1.15,2013-07-27 00:45:00,
2013-07-26 17:50:00,84.4,64.9,30.01,SW,234,3.0,3.0,52,0.00,,,0.00,0,Wunderground v.1.15,2013-07-27 00:50:00,
2013-07-26 17:59:00,84.3,64.8,30.01,WSW,238,0.0,0.0,52,0.00,,,0.00,0,Wunderground v.1.15,2013-07-27 00:59:00,
2013-07-26 18:09:00,84.2,64.7,30.01,South,189,0.0,0.0,52,0.00,,,0.00,0,Wunderground v.1.15,2013-07-27 01:09:00,
2013-07-26 18:14:00,84.4,64.9,30.01,SSW,209,0.0,0.0,52,0.00,,,0.00,0,Wunderground v.1.15,2013-07-27 01:14:00,
2013-07-26 18:24:00,84.3,65.3,30.01,SSW,207,1.0,1.0,53,0.00,,,0.00,0,Wunderground v.1.15,2013-07-27 01:24:00,
2013-07-26 18:29:00,84.5,66.0,30.01,WNW,290,1.0,1.0,54,0.00,,,0.00,0,Wunderground v.1.15,2013-07-27 01:29:00,
2013-07-26 18:35:00,84.3,66.4,30.01,WNW,293,3.0,3.0,55,0.00,,,0.00,0,Wunderground v.1.15,2013-07-27 01:35:00,
2013-07-26 18:40:00,84.1,66.7,30.01,NW,310,0.0,0.0,56,0.00,,,0.00,0,Wunderground v.1.15,2013-07-27 01:40:00,
2013-07-26 18:49:00,82.9,65.6,30.01,SSW,195,0.0,0.0,56,0.00,,,0.00,0,Wunderground v.1.15,2013-07-27 01:49:00,
2013-07-26 18:55:00,81.8,66.1,30.01,SSW,198,1.0,1.0,59,0.00,,,0.00,0,Wunderground v.1.15,2013-07-27 01:55:00,
2013-07-26 19:00:00,81.0,65.8,30.01,SW,221,0.0,0.0,60,0.00,,,0.00,0,Wunderground v.1.15,2013-07-27 02:00:00,
2013-07-26 19:09:00,79.8,65.2,30.01,South,187,0.0,0.0,61,0.00,,,0.00,0,Wunderground v.1.15,2013-07-27 02:09:00,
2013-07-26 19:15:00,79.8,65.2,30.01,SSW,205,1.0,1.0,61,0.00,,,0.00,0,Wunderground v.1.15,2013-07-27 02:15:00,
2013-07-26 19:24:00,80.0,65.3,30.01,NNW,347,3.0,3.0,61,0.00,,,0.00,0,Wunderground v.1.15,2013-07-27 02:24:00,
2013-07-26 19:29:00,79.4,64.8,30.02,NNW,329,4.0,4.0,61,0.00,,,0.00,0,Wunderground v.1.15,2013-07-27 02:29:00,
2013-07-26 19:39:00,77.6,64.5,30.02,North,351,3.0,3.0,64,0.00,,,0.00,0,Wunderground v.1.15,2013-07-27 02:39:00,
2013-07-26 19:45:00,77.0,63.9,30.02,WNW,300,6.0,6.0,64,0.00,,,0.00,0,Wunderground v.1.15,2013-07-27 02:45:00,
2013-07-26 19:50:00,76.2,63.6,30.02,North,353,2.0,2.0,65,0.00,,,0.00,0,Wunderground v.1.15,2013-07-27 02:50:00,
2013-07-26 19:59:00,74.9,63.6,30.02,NNW,343,4.0,4.0,68,0.00,,,0.00,0,Wunderground v.1.15,2013-07-27 02:59:00,
2013-07-26 20:04:00,74.0,63.2,30.02,NNW,330,2.0,4.0,69,0.00,,,0.00,0,Wunderground v.1.15,2013-07-27 03:04:00,
2013-07-26 20:15:00,72.3,62.0,30.03,NNW,346,1.0,2.0,70,0.00,,,0.00,0,Wunderground v.1.15,2013-07-27 03:15:00,
2013-07-26 20:20:00,71.6,62.1,30.03,NNW,335,3.0,3.0,72,0.00,,,0.00,0,Wunderground v.1.15,2013-07-27 03:20:00,
2013-07-26 20:29:00,70.4,60.9,30.03,WNW,303,5.0,5.0,72,0.00,,,0.00,0,Wunderground v.1.15,2013-07-27 03:29:00,
2013-07-26 20:39:00,69.6,61.3,30.04,WNW,300,0.0,0.0,75,0.00,,,0.00,0,Wunderground v.1.15,2013-07-27 03:39:00,
2013-07-26 20:45:00,69.2,61.3,30.04,WSW,247,1.0,1.0,76,0.00,,,0.00,0,Wunderground v.1.15,2013-07-27 03:45:00,
2013-07-26 20:50:00,68.9,61.4,30.04,WSW,247,0.0,0.0,77,0.00,,,0.00,0,Wunderground v.1.15,2013-07-27 03:50:00,
2013-07-26 20:59:00,68.2,60.0,30.04,SW,231,1.0,1.0,75,0.00,,,0.00,0,Wunderground v.1.15,2013-07-27 03:59:00,
2013-07-26 21:04:00,67.6,56.2,30.04,SSW,205,2.0,2.0,67,0.00,,,0.00,0,Wunderground v.1.15,2013-07-27 04:04:00,
2013-07-26 21:09:00,67.0,56.5,30.05,SSW,205,3.0,3.0,69,0.00,,,0.00,0,Wunderground v.1.15,2013-07-27 04:09:00,
2013-07-26 21:14:00,66.5,58.7,30.05,SSW,197,4.0,4.0,76,0.00,,,0.00,0,Wunderground v.1.15,2013-07-27 04:14:00,
2013-07-26 21:19:00,65.5,59.5,30.05,South,177,1.0,1.0,81,0.00,,,0.00,0,Wunderground v.1.15,2013-07-27 04:19:00,
2013-07-26 21:24:00,64.9,58.2,30.05,South,183,2.0,2.0,79,0.00,,,0.00,0,Wunderground v.1.15,2013-07-27 04:24:00,
2013-07-26 21:29:00,64.4,57.0,30.05,SSW,201,0.0,0.0,77,0.00,,,0.00,0,Wunderground v.1.15,2013-07-27 04:29:00,
2013-07-26 21:35:00,64.1,56.4,30.05,SSW,201,1.0,1.0,76,0.00,,,0.00,0,Wunderground v.1.15,2013-07-27 04:35:00,
2013-07-26 21:40:00,64.1,56.4,30.05,SSW,201,1.0,1.0,76,0.00,,,0.00,0,Wunderground v.1.15,2013-07-27 04:40:00,
2013-07-26 21:49:00,64.0,59.1,30.05,SSW,201,0.0,0.0,84,0.00,,,0.00,0,Wunderground v.1.15,2013-07-27 04:49:00,
2013-07-26 21:54:00,63.9,59.3,30.05,SSW,201,0.0,0.0,85,0.00,,,0.00,0,Wunderground v.1.15,2013-07-27 04:54:00,
2013-07-26 22:04:00,63.7,59.1,30.06,SSW,201,0.0,0.0,85,0.00,,,0.00,0,Wunderground v.1.15,2013-07-27 05:04:00,
2013-07-26 22:09:00,63.6,59.3,30.06,SSW,201,1.0,1.0,86,0.00,,,0.00,0,Wunderground v.1.15,2013-07-27 05:09:00,
2013-07-26 22:15:00,63.5,58.9,30.06,SW,235,1.0,1.0,85,0.00,,,0.00,0,Wunderground v.1.15,2013-07-27 05:15:00,
2013-07-26 22:20:00,63.3,58.7,30.06,WSW,241,0.0,0.0,85,0.00,,,0.00,0,Wunderground v.1.15,2013-07-27 05:20:00,
2013-07-26 22:29:00,63.1,54.7,30.06,WSW,253,0.0,0.0,74,0.00,,,0.00,0,Wunderground v.1.15,2013-07-27 05:29:00,
2013-07-26 22:35:00,62.9,54.5,30.06,WSW,253,0.0,0.0,74,0.00,,,0.00,0,Wunderground v.1.15,2013-07-27 05:35:00,
2013-07-26 22:40:00,62.8,56.9,30.06,WSW,253,0.0,0.0,81,0.00,,,0.00,0,Wunderground v.1.15,2013-07-27 05:40:00,
2013-07-26 22:49:00,62.6,58.0,30.06,South,188,2.0,2.0,85,0.00,,,0.00,0,Wunderground v.1.15,2013-07-27 05:49:00,
2013-07-26 22:59:00,62.3,56.7,30.06,SSW,202,0.0,0.0,82,0.00,,,0.00,0,Wunderground v.1.15,2013-07-27 05:59:00,
2013-07-26 23:04:00,62.1,56.2,30.05,SSW,202,0.0,0.0,81,0.00,,,0.00,0,Wunderground v.1.15,2013-07-27 06:04:00,
2013-07-26 23:09:00,61.9,56.0,30.05,SSW,202,0.0,0.0,81,0.00,,,0.00,0,Wunderground v.1.15,2013-07-27 06:09:00,
2013-07-26 23:19:00,61.7,56.8,30.05,SSW,202,0.0,0.0,84,0.00,,,0.00,0,Wunderground v.1.15,2013-07-27 06:19:00,
2013-07-26 23:29:00,61.4,57.5,30.05,SSW,202,0.0,0.0,87,0.00,,,0.00,0,Wunderground v.1.15,2013-07-27 06:29:00,
2013-07-26 23:34:00,61.3,56.4,30.05,SSW,202,0.0,0.0,84,0.00,,,0.00,0,Wunderground v.1.15,2013-07-27 06:34:00,
2013-07-26 23:39:00,61.2,55.3,30.05,SSW,202,0.0,0.0,81,0.00,,,0.00,0,Wunderground v.1.15,2013-07-27 06:39:00,
2013-07-26 23:49:00,61.1,53.1,30.05,SSW,202,0.0,0.0,75,0.00,,,0.00,0,Wunderground v.1.15,2013-07-27 06:49:00,
2013-07-26 23:54:00,61.0,54.1,30.05,SSW,202,0.0,0.0,78,0.00,,,0.00,0,Wunderground v.1.15,2013-07-27 06:54:00,
2013-07-26 23:59:00,60.8,53.2,30.05,SSW,202,0.0,0.0,76,0.00,,,0.00,0,Wunderground v.1.15,2013-07-27 06:59:00,